Location: Castelbiague
(43.0361°N, 0.9246°E)
Time: 08:30:12
(UTC+00:00)

FALCON 9 DEB - Pass Details

Date: 17 June 2021
Orbit: 364 x 377 km, 53.0° (Epoch: 26 July)

Event Time Altitude Azimuth Distance (km) Brightness Sun altitude
Exits shadow 22:13:53 85° 358° (N) 391 2.8 -19.4°
Drops below altitude 10° 22:17:00 10° 53° (NE) 1,413 5.9 -19.7°
Sets 22:19:03 0° 54° (NE) 2,270 6.9 -19.8°
